• Join FlightAware (Why Join?)
  • Login
  • US Flag GB Flag 
03:35 EST


 

Airport Tracker/Info


-or-


 

Live Flight TrackerFlight Track Log ✈ SWA378 ✈ 02-May-2013 ✈ KSJC - KLAX

Flight Track Log - Related Links

Times and Time Zones

All times are in EDT time to prevent confusion due to time zone crossing. See the SWA378 flight status page for this flight to view local times or setup timezone preferences in your user account.

Time Position Orientation Groundspeed Altitude Reporting Facility
EDT Latitude Longitude Course Direction KTS MPH feet Rate Location/Type
11:43 37.3833 -121.9500 345° North 164 189 1,500  Level Northern Cal TRACON
11:44 37.4333 -121.9667 345° North 217 250 3,800 1,750 Climbing Northern Cal TRACON
11:45 37.4167 -121.9000 107° East 233 268 5,000 1,350 Climbing Northern Cal TRACON
11:46 37.3667 -121.8333 133° Southeast 236 272 6,500 2,000 Climbing Northern Cal TRACON
11:46 37.3486 -121.8075 131° Southeast 233 268 8,100 2,716 Climbing Oakland Center
11:47 37.2903 -121.7414 138° Southeast 283 326 10,800 2,780 Climbing Oakland Center
11:48 37.2206 -121.6647 139° Southeast 330 380 13,800 2,732 Climbing Oakland Center
11:49 37.1478 -121.5800 137° Southeast 356 410 16,400 2,585 Climbing Oakland Center
11:50 37.0686 -121.4956 140° Southeast 387 445 19,100 2,780 Climbing Oakland Center
11:51 36.9683 -121.3822 138° Southeast 406 467 22,100 2,634 Climbing Oakland Center
11:52 36.8778 -121.2889 140° Southeast 420 483 24,500 2,244 Climbing Oakland Center
11:53 36.7864 -121.1928 140° Southeast 438 504 26,700 1,902 Climbing Oakland Center
11:54 36.6903 -121.0903 139° Southeast 451 519 28,400 1,721 Climbing Oakland Center
11:55 36.5906 -120.9836 139° Southeast 469 540 30,200 1,951 Climbing Oakland Center
11:56 36.4889 -120.8814 141° Southeast 469 540 32,400 1,902 Climbing Oakland Center
11:57 36.3908 -120.7769 139° Southeast 463 533 34,100 1,805 Climbing Oakland Center
11:58 36.2703 -120.6547 141° Southeast 464 534 36,100 1,707 Climbing Oakland Center
12:00 36.1697 -120.5544 141° Southeast 462 532 37,600 1,366 Climbing Oakland Center
12:01 36.0714 -120.4517 140° Southeast 472 543 38,900 683 Climbing Oakland Center
12:02 35.9736 -120.3572 142° Southeast 437 503 39,000 49 Climbing Oakland Center
12:03 35.8756 -120.2567 140° Southeast 451 519 39,000  Level Oakland Center
12:04 35.7781 -120.1603 141° Southeast 448 516 39,000  Level Oakland Center
12:05 35.6808 -120.0625 141° Southeast 447 514 39,000  Level Oakland Center
12:06 35.5814 -119.9628 141° Southeast 456 525 39,000 -387 Level Oakland Center
12:07 35.4833 -119.8656 141° Southeast 451 519 38,200 -829 Descending Oakland Center
12:08 35.3839 -119.7681 141° Southeast 454 522 37,300 -987 Descending Oakland Center
12:08 35.3433 -119.7281 141° Southeast 461 531 36,900 -975 Descending Los Angeles Center
12:09 35.2436 -119.6300 141° Southeast 459 528 36,000 -823 Descending Los Angeles Center
12:10 35.1594 -119.5572 145° Southeast 461 531 35,200 -1,984 Descending Los Angeles Center
12:11 35.0333 -119.4497 145° Southeast 460 529 31,900 -2,806 Descending Los Angeles Center
12:12 34.9256 -119.3603 146° Southeast 466 536 29,400 -2,565 Descending Los Angeles Center
12:13 34.8036 -119.2564 145° Southeast 448 516 26,600 -2,468 Descending Los Angeles Center
12:14 34.7067 -119.1725 145° Southeast 431 496 24,300 -2,226 Descending Los Angeles Center
12:15 34.6031 -119.0875 146° Southeast 420 483 22,000 -2,160 Descending Los Angeles Center
12:16 34.5122 -119.0111 145° Southeast 394 453 19,800 -2,064 Descending Los Angeles Center
12:17 34.4247 -118.9383 146° Southeast 382 440 17,700 -1,984 Descending Los Angeles Center
12:18 34.3381 -118.8725 148° Southeast 370 426 15,700 -1,984 Descending Los Angeles Center
12:19 34.2411 -118.8389 164° South 365 420 13,600 -2,000 Descending Los Angeles Center
12:20 34.1658 -118.8106 163° South 357 411 11,600 -1,742 Descending Los Angeles Center
12:21 34.0467 -118.7564 159° South 310 357 10,000 -768 Descending Los Angeles Center
12:22 34.0297 -118.6678 103° East 263 303 10,000 -145 Level Los Angeles Center
12:24 34.0219 -118.5814 96° East 231 266 9,700 -629 Descending Los Angeles Center
12:25 34.0150 -118.5106 97° East 214 246 8,700 -1,065 Descending Los Angeles Center
12:26 34.0103 -118.4469 95° East 211 243 7,500 -1,007 Descending Los Angeles Center
12:27 34.0186 -118.3772 82° East 210 242 6,400 -1,139 Descending Los Angeles Center
12:28 34.0289 -118.2861 82° East 198 228 4,900 -1,258 Descending Los Angeles Center
12:29 34.0339 -118.2236 84° East 191 220 3,800 -919 Descending Los Angeles Center
12:30 34.0114 -118.1789 121° Southeast 193 222 3,000 -387 Descending Los Angeles Center
12:31 33.9703 -118.2097 212° Southwest 195 224 3,000 -387 Level Los Angeles Center
12:32 33.9628 -118.2739 262° West 195 224 2,200 -912 Descending Los Angeles Center
12:33 33.9567 -118.3422 264° West 183 211 1,100 -864 Descending Los Angeles Center
12:34 33.9525 -118.3889 264° West 159 183 400 -484 Descending Los Angeles Center
12:35 33.9475 -118.4303 262° West 152 175 100 -290 Descending Los Angeles Center
12:37 33.9425 -118.4081 90° East  Level Estimated